Time,TemperatureF,DewpointF,PressureIn,WindDirection,WindDirectionDegrees,WindSpeedMPH,WindSpeedGustMPH,Humidity,HourlyPrecipIn,Conditions,Clouds,dailyrainin,SoftwareType,DateUTC
2015-03-30 00:03:00,42.0,37.2,29.99,SSE,157,5.0,6.0,83,0.00,,---,0.05,VWS V14.01,2015-03-30 04:03:00,
2015-03-30 00:08:00,42.0,37.2,29.99,South,180,3.0,10.0,83,0.00,,---,0.05,VWS V14.01,2015-03-30 04:08:00,
2015-03-30 00:13:00,42.0,37.2,29.99,SSW,202,7.0,7.0,83,0.00,,---,0.05,VWS V14.01,2015-03-30 04:13:00,
2015-03-30 00:18:00,42.0,37.2,29.99,SSE,157,6.0,7.0,83,0.00,,---,0.05,VWS V14.01,2015-03-30 04:18:00,
2015-03-30 00:23:00,41.0,36.5,29.98,South,180,8.0,8.0,84,0.00,,---,0.05,VWS V14.01,2015-03-30 04:23:00,
2015-03-30 00:28:00,41.0,37.1,29.98,SSW,202,5.0,6.0,86,0.00,,---,0.05,VWS V14.01,2015-03-30 04:28:00,
2015-03-30 00:34:00,41.0,37.4,29.98,South,180,4.0,5.0,87,0.00,,---,0.05,VWS V14.01,2015-03-30 04:34:00,
2015-03-30 00:39:00,41.0,38.0,29.98,SSE,157,5.0,10.0,89,0.00,,---,0.05,VWS V14.01,2015-03-30 04:39:00,
2015-03-30 00:44:00,41.0,38.3,29.98,SSW,202,5.0,10.0,90,0.00,,---,0.05,VWS V14.01,2015-03-30 04:44:00,
2015-03-30 00:49:00,41.0,38.6,29.98,SSE,157,6.0,10.0,91,0.00,,---,0.05,VWS V14.01,2015-03-30 04:49:00,
2015-03-30 00:54:00,41.0,38.9,29.98,South,180,5.0,10.0,92,0.00,,---,0.05,VWS V14.01,2015-03-30 04:54:00,
2015-03-30 00:59:00,41.0,38.9,29.98,West,270,5.0,11.0,92,0.00,,---,0.00,VWS V14.01,2015-03-30 04:59:00,
2015-03-30 01:04:00,42.0,40.1,29.98,SSW,202,6.0,10.0,93,0.00,,---,0.00,VWS V14.01,2015-03-30 05:04:00,
2015-03-30 01:09:00,42.0,40.4,29.98,SW,225,3.0,10.0,94,0.00,,---,0.00,VWS V14.01,2015-03-30 05:09:00,
2015-03-30 01:14:00,42.0,40.4,29.98,SW,225,5.0,11.0,94,0.00,,---,0.00,VWS V14.01,2015-03-30 05:14:00,
2015-03-30 01:19:00,42.0,40.7,29.98,WSW,247,6.0,11.0,95,0.00,,---,0.00,VWS V14.01,2015-03-30 05:19:00,
2015-03-30 01:24:00,42.0,41.2,29.99,WSW,247,4.0,10.0,97,0.00,,---,0.00,VWS V14.01,2015-03-30 05:24:00,
2015-03-30 01:29:00,42.0,41.5,29.99,SW,225,9.0,11.0,98,0.00,,---,0.00,VWS V14.01,2015-03-30 05:29:00,
2015-03-30 01:34:00,41.0,40.5,29.98,WSW,247,9.0,11.0,98,0.00,,---,0.00,VWS V14.01,2015-03-30 05:34:00,
2015-03-30 01:39:00,41.0,40.7,29.98,SSW,202,8.0,11.0,99,0.00,,---,0.00,VWS V14.01,2015-03-30 05:39:00,
2015-03-30 01:45:00,41.0,40.7,29.98,SW,225,5.0,17.0,99,0.00,,---,0.00,VWS V14.01,2015-03-30 05:45:00,
2015-03-30 01:50:00,42.0,42.0,29.98,WSW,247,5.0,17.0,100,0.00,,---,0.00,VWS V14.01,2015-03-30 05:50:00,
2015-03-30 01:55:00,42.0,42.0,29.98,SW,225,6.0,11.0,100,0.00,,---,0.00,VWS V14.01,2015-03-30 05:55:00,
2015-03-30 02:00:00,42.0,42.0,29.97,SSW,202,5.0,10.0,100,0.00,,---,0.00,VWS V14.01,2015-03-30 06:00:00,
2015-03-30 02:05:00,42.0,41.7,29.97,SW,225,7.0,11.0,99,0.00,,---,0.00,VWS V14.01,2015-03-30 06:05:00,
2015-03-30 02:10:00,42.0,41.7,29.97,WSW,247,10.0,10.0,99,0.00,,---,0.00,VWS V14.01,2015-03-30 06:10:00,
2015-03-30 02:15:00,42.0,41.7,29.98,WSW,247,6.0,10.0,99,0.00,,---,0.00,VWS V14.01,2015-03-30 06:15:00,
2015-03-30 02:20:00,43.0,42.7,29.98,WSW,247,7.0,10.0,99,0.00,,---,0.00,VWS V14.01,2015-03-30 06:20:00,
2015-03-30 02:25:00,42.0,41.7,29.98,SW,225,9.0,13.0,99,0.00,,---,0.00,VWS V14.01,2015-03-30 06:25:00,
2015-03-30 02:30:00,43.0,42.5,29.98,WSW,247,6.0,9.0,98,0.00,,---,0.00,VWS V14.01,2015-03-30 06:30:00,
2015-03-30 02:35:00,43.0,42.7,29.98,WSW,247,6.0,10.0,99,0.00,,---,0.00,VWS V14.01,2015-03-30 06:35:00,
2015-03-30 02:40:00,43.0,42.5,29.98,WSW,247,7.0,10.0,98,0.00,,---,0.00,VWS V14.01,2015-03-30 06:40:00,
2015-03-30 02:45:00,43.0,42.7,29.98,WSW,247,4.0,9.0,99,0.00,,---,0.00,VWS V14.01,2015-03-30 06:45:00,
2015-03-30 02:51:00,43.0,42.7,29.98,WSW,247,7.0,13.0,99,0.00,,---,0.00,VWS V14.01,2015-03-30 06:51:00,
2015-03-30 02:56:00,43.0,42.5,29.98,WSW,247,4.0,11.0,98,0.00,,---,0.00,VWS V14.01,2015-03-30 06:56:00,
2015-03-30 03:01:00,44.0,43.5,29.98,West,270,12.0,17.0,98,0.00,,---,0.00,VWS V14.01,2015-03-30 07:01:00,
2015-03-30 03:06:00,44.0,43.5,29.98,West,270,9.0,15.0,98,0.00,,---,0.00,VWS V14.01,2015-03-30 07:06:00,
2015-03-30 03:11:00,44.0,43.2,29.99,West,270,9.0,15.0,97,0.00,,---,0.00,VWS V14.01,2015-03-30 07:11:00,
2015-03-30 03:16:00,44.0,42.9,29.99,West,270,9.0,15.0,96,0.00,,---,0.00,VWS V14.01,2015-03-30 07:16:00,
2015-03-30 03:21:00,44.0,42.9,29.99,WSW,247,10.0,15.0,96,0.00,,---,0.00,VWS V14.01,2015-03-30 07:21:00,
2015-03-30 03:26:00,44.0,42.7,29.99,WNW,292,14.0,19.0,95,0.00,,---,0.00,VWS V14.01,2015-03-30 07:26:00,
2015-03-30 03:31:00,44.0,42.7,29.98,WNW,292,15.0,19.0,95,0.00,,---,0.00,VWS V14.01,2015-03-30 07:31:00,
2015-03-30 03:36:00,44.0,42.4,29.98,WNW,292,18.0,23.0,94,0.00,,---,0.00,VWS V14.01,2015-03-30 07:36:00,
2015-03-30 03:41:00,43.0,41.4,29.99,West,270,13.0,20.0,94,0.00,,---,0.00,VWS V14.01,2015-03-30 07:41:00,
2015-03-30 03:46:00,43.0,41.4,29.99,WNW,292,9.0,21.0,94,0.00,,---,0.00,VWS V14.01,2015-03-30 07:46:00,
2015-03-30 03:51:00,43.0,41.4,29.99,WNW,292,19.0,20.0,94,0.00,,---,0.00,VWS V14.01,2015-03-30 07:51:00,
2015-03-30 03:56:00,43.0,41.7,29.99,WNW,292,15.0,22.0,95,0.00,,---,0.00,VWS V14.01,2015-03-30 07:56:00,
2015-03-30 04:02:00,42.0,40.7,29.99,West,270,13.0,19.0,95,0.00,,---,0.00,VWS V14.01,2015-03-30 08:02:00,
2015-03-30 04:07:00,42.0,40.7,29.99,WNW,292,9.0,18.0,95,0.00,,---,0.00,VWS V14.01,2015-03-30 08:07:00,
2015-03-30 04:12:00,42.0,40.1,29.99,West,270,11.0,17.0,93,0.00,,---,0.00,VWS V14.01,2015-03-30 08:12:00,
2015-03-30 04:17:00,42.0,40.1,29.99,WNW,292,9.0,17.0,93,0.00,,---,0.00,VWS V14.01,2015-03-30 08:17:00,
2015-03-30 04:22:00,41.0,38.9,29.99,NW,315,13.0,17.0,92,0.00,,---,0.00,VWS V14.01,2015-03-30 08:22:00,
2015-03-30 04:27:00,41.0,38.6,29.99,NW,315,15.0,16.0,91,0.00,,---,0.00,VWS V14.01,2015-03-30 08:27:00,
2015-03-30 04:32:00,41.0,38.6,29.99,WNW,292,9.0,14.0,91,0.00,,---,0.00,VWS V14.01,2015-03-30 08:32:00,
2015-03-30 04:37:00,41.0,38.3,29.99,WNW,292,8.0,15.0,90,0.00,,---,0.00,VWS V14.01,2015-03-30 08:37:00,
2015-03-30 04:42:00,40.0,37.0,30.00,NNW,337,10.0,15.0,89,0.00,,---,0.00,VWS V14.01,2015-03-30 08:42:00,
2015-03-30 04:47:00,40.0,37.0,30.00,WNW,292,9.0,13.0,89,0.00,,---,0.00,VWS V14.01,2015-03-30 08:47:00,
2015-03-30 04:52:00,40.0,36.7,30.00,West,270,6.0,12.0,88,0.00,,---,0.00,VWS V14.01,2015-03-30 08:52:00,
2015-03-30 04:57:00,40.0,36.7,30.00,WNW,292,6.0,11.0,88,0.00,,---,0.00,VWS V14.01,2015-03-30 08:57:00,
2015-03-30 05:02:00,40.0,36.7,30.00,WNW,292,6.0,12.0,88,0.00,,---,0.00,VWS V14.01,2015-03-30 09:02:00,
2015-03-30 05:08:00,39.0,36.0,30.00,West,270,6.0,8.0,89,0.00,,---,0.00,VWS V14.01,2015-03-30 09:08:00,
2015-03-30 05:13:00,39.0,35.8,30.01,WNW,292,6.0,10.0,88,0.00,,---,0.00,VWS V14.01,2015-03-30 09:13:00,
2015-03-30 05:18:00,39.0,36.0,30.01,WNW,292,7.0,8.0,89,0.00,,---,0.00,VWS V14.01,2015-03-30 09:18:00,
2015-03-30 05:23:00,39.0,36.0,30.01,WNW,292,3.0,9.0,89,0.00,,---,0.00,VWS V14.01,2015-03-30 09:23:00,
2015-03-30 05:28:00,38.0,35.3,30.01,WNW,292,6.0,10.0,90,0.00,,---,0.00,VWS V14.01,2015-03-30 09:28:00,
2015-03-30 05:33:00,38.0,35.6,30.02,West,270,5.0,8.0,91,0.00,,---,0.00,VWS V14.01,2015-03-30 09:33:00,
2015-03-30 05:38:00,38.0,35.6,30.02,West,270,4.0,8.0,91,0.00,,---,0.00,VWS V14.01,2015-03-30 09:38:00,
2015-03-30 05:43:00,38.0,35.6,30.02,West,270,5.0,8.0,91,0.00,,---,0.00,VWS V14.01,2015-03-30 09:43:00,
2015-03-30 05:48:00,38.0,35.9,30.02,West,270,6.0,7.0,92,0.00,,---,0.00,VWS V14.01,2015-03-30 09:48:00,
2015-03-30 05:53:00,38.0,35.9,30.02,WSW,247,6.0,8.0,92,0.00,,---,0.00,VWS V14.01,2015-03-30 09:53:00,
2015-03-30 05:58:00,37.0,35.2,30.02,WSW,247,5.0,7.0,93,0.00,,---,0.00,VWS V14.01,2015-03-30 09:58:00,
2015-03-30 05:59:00,36.0,35.0,30.05,SW,225,4.0,6.0,96,0.00,,---,0.00,VWS V14.01,2015-03-30 09:59:00,
2015-03-30 06:03:00,38.0,35.6,30.02,WSW,247,6.0,9.0,91,0.00,,---,0.00,VWS V14.01,2015-03-30 10:03:00,
2015-03-30 06:08:00,38.0,35.3,30.02,WSW,247,6.0,10.0,90,0.00,,---,0.00,VWS V14.01,2015-03-30 10:08:00,
2015-03-30 06:13:00,37.0,34.9,30.03,WSW,247,3.0,7.0,92,0.00,,---,0.00,VWS V14.01,2015-03-30 10:13:00,
2015-03-30 06:15:00,36.0,35.0,30.06,WSW,247,5.0,6.0,96,0.00,,---,0.00,VWS V14.01,2015-03-30 10:15:00,
2015-03-30 06:17:00,36.0,35.0,30.06,WSW,247,5.0,8.0,96,0.00,,---,0.00,VWS V14.01,2015-03-30 10:17:00,
2015-03-30 06:18:00,37.0,35.2,30.03,WSW,247,4.0,8.0,93,0.00,,---,0.00,VWS V14.01,2015-03-30 10:18:00,
2015-03-30 06:20:00,36.0,35.0,30.06,WSW,247,4.0,5.0,96,0.00,,---,0.00,VWS V14.01,2015-03-30 10:20:00,
2015-03-30 06:22:00,36.0,34.7,30.06,WSW,247,7.0,9.0,95,0.00,,---,0.00,VWS V14.01,2015-03-30 10:22:00,
2015-03-30 06:23:00,37.0,34.9,30.03,WSW,247,4.0,8.0,92,0.00,,---,0.00,VWS V14.01,2015-03-30 10:23:00,
2015-03-30 06:25:00,36.0,34.7,30.06,SW,225,6.0,9.0,95,0.00,,---,0.00,VWS V14.01,2015-03-30 10:25:00,
2015-03-30 06:28:00,37.0,35.2,30.03,WSW,247,6.0,8.0,93,0.00,,---,0.00,VWS V14.01,2015-03-30 10:28:00,
2015-03-30 06:32:00,36.0,34.7,30.07,WSW,247,6.0,7.0,95,0.00,,---,0.00,VWS V14.01,2015-03-30 10:32:00,
2015-03-30 06:33:00,37.0,35.4,30.04,SW,225,7.0,7.0,94,0.00,,---,0.00,VWS V14.01,2015-03-30 10:33:00,
2015-03-30 06:38:00,37.0,35.4,30.04,SW,225,4.0,9.0,94,0.00,,---,0.00,VWS V14.01,2015-03-30 10:38:00,
2015-03-30 06:43:00,36.0,34.4,30.05,WSW,247,4.0,7.0,94,0.00,,---,0.00,VWS V14.01,2015-03-30 10:43:00,
2015-03-30 06:48:00,36.0,34.7,30.05,SW,225,5.0,6.0,95,0.00,,---,0.00,VWS V14.01,2015-03-30 10:48:00,
2015-03-30 06:53:00,36.0,35.0,30.05,SW,225,4.0,7.0,96,0.00,,---,0.00,VWS V14.01,2015-03-30 10:53:00,
2015-03-30 06:58:00,36.0,35.0,30.05,SW,225,4.0,6.0,96,0.00,,---,0.00,VWS V14.01,2015-03-30 10:58:00,
2015-03-30 07:05:00,36.0,35.0,30.05,SW,225,4.0,6.0,96,0.00,,---,0.00,VWS V14.01,2015-03-30 11:05:00,
2015-03-30 07:10:00,36.0,35.0,30.06,WSW,247,5.0,6.0,96,0.00,,---,0.00,VWS V14.01,2015-03-30 11:10:00,
2015-03-30 07:16:00,36.0,35.0,30.06,WSW,247,6.0,8.0,96,0.00,,---,0.00,VWS V14.01,2015-03-30 11:16:00,
2015-03-30 07:21:00,36.0,34.7,30.06,WSW,247,5.0,9.0,95,0.00,,---,0.00,VWS V14.01,2015-03-30 11:21:00,
2015-03-30 07:26:00,36.0,34.7,30.06,WSW,247,5.0,8.0,95,0.00,,---,0.00,VWS V14.01,2015-03-30 11:26:00,